* Astronomy

Members Login
Username 
 
Password 
    Remember Me  
Post Info TOPIC: Asteroid 2005 EJ94


L

Posts: 131433
Date:
Asteroid 2005 EJ94
Permalink  
 


Orbital elements:
2005 EJ94 = 2009 DY13 Earth MOID = 0.1784 AU
Epoch 2009 June 18.0 TT = JDT 2455000.5 MPC
M 359.14232 (2000.0) P Q
n 0.25351074 Peri. 286.16984 -0.27055476 +0.96042539
a 2.4725124 Node 327.89610 -0.82882380 -0.26736285
e 0.5384735 Incl. 7.15617 -0.48974608 -0.07810367
P 3.89 H 19.1 G 0.15 U 3

MPEC 2009 - F112


__________________
Page 1 of 1  sorted by
 
Quick Reply

Please log in to post quick replies.



Create your own FREE Forum
Report Abuse
Powered by ActiveBoard